Location: ??????
(41.3747°N, 22.5491°E)
Time: 06:00:47
(UTC+00:00)

Cosmos 923 Rocket - Pass Details

Date: 01 December 2020
Orbit: 757 x 786 km, 74.0° (Epoch: 20 January)

Event Time Altitude Azimuth Distance (km) Brightness Sun altitude
Rises 17:15:02 0° 209° (SSW) 3,200 7.7 -24.5°
Reaches altitude 10° 17:17:26 10° 214° (SSW) 2,280 7.0 -25.0°
Maximum altitude 17:22:30 57° 292° (WNW) 894 4.5 -25.9°
Enters shadow 17:24:48 31° 357° (N) 1,305 5.1 -26.3°
